CYSAT-1

Last updated on Thu Nov 21 2024 00:02:09 GMT+0000 (Coordinated Universal Time)

1 61501U 98067WZ 24325.24304416 .00176774 00000+0 17481-2 0 9997 2 61501 51.6332 260.0778 0010652 177.0152 183.0909 15.64705614 6715
UTC large
Height (km)
Speed (km/s)
/
Latitude / Longitude
Inclination (degrees)
Orbital Period (minutes)
Azimuth
Elevation
Range (km)
Doppler Factor

Next 0 passes for location: London (51.5072 / 0.1276)

Sorry there are no passes over London.